DW3693 Weather Reports


Display with metric or nautical units.
time (UTC)temp
F
wind
direction
speed
MPH
gust
MPH
rain 1hr
in
rain 24hr
in
rain mn
in
humidity
%
barometer
mb
20260510061558 54 0.0 1.0 0.00 0.00 0.00 73 1015.3
20260510060517 54 0.0 2.0 0.00 0.00 0.00 73 1015.2
20260510055538 54 0.0 1.0 0.00 0.00 0.00 73 1015.2
20260510054518 55 0.0 1.0 0.00 0.00 0.00 72 1015.2
20260510053517 56 0.0 2.0 0.00 0.00 0.00 71 1015.0
20260510052558 56 0.0 2.0 0.00 0.00 0.00 71 1015.0
20260510051537 56 225 1.0 2.0 0.00 0.00 0.00 70 1014.9
20260510050517 57 225 1.0 2.0 0.00 0.00 0.00 70 1014.8
20260510045517 57 0.0 1.0 0.00 0.00 0.00 70 1014.8
20260510044517 58 23 2.0 3.0 0.00 0.00 0.00 70 1014.6
20260510043538 59 0.0 2.0 0.00 0.00 0.00 68 1014.6
20260510042517 59 0.0 1.0 0.00 0.00 0.00 68 1014.5
20260510041517 60 0.0 0.0 0.00 0.00 0.00 68 1014.6
20260510040517 61 0.0 0.0 0.00 0.00 0.00 68 1014.4
20260510035537 62 0.0 1.0 0.00 0.00 0.00 66 1014.1
20260510034517 63 0.0 0.0 0.00 0.00 0.00 65 1014.1
20260510033516 64 0.0 1.0 0.00 0.00 0.00 65 1014.0
20260510032516 65 0.0 0.0 0.00 0.00 0.00 64 1014.1
20260510031516 66 0.0 1.0 0.00 0.00 0.00 64 1014.1
20260510030537 68 0.0 0.0 0.00 0.00 0.00 61 1014.0
20260510025516 69 0.0 0.0 0.00 0.00 0.00 60 1014.1
20260510024517 70 0.0 0.0 0.00 0.00 0.00 61 1014.0
20260510023516 70 0.0 0.0 0.00 0.00 0.00 60 1014.1
20260510022516 71 0.0 1.0 0.00 0.00 0.00 57 1014.1
20260510021515 72 0.0 0.0 0.00 0.00 0.00 55 1014.0
20260510020541 72 0.0 0.0 0.00 0.00 0.00 52 1013.9
20260510015517 72 0.0 0.0 0.00 0.00 0.00 48 1014.1
20260510014517 74 0.0 0.0 0.00 0.00 0.00 40 1014.3
20260510013517 75 0.0 1.0 0.00 0.00 0.00 41 1014.3
20260510012516 74 0.0 0.0 0.00 0.00 0.00 53 1014.4
20260510011637 74 0.0 0.0 0.00 0.00 0.00 47 1014.5
20260510010517 74 0.0 0.0 0.00 0.00 0.00 41 1014.5
20260510005516 75 0.0 1.0 0.00 0.00 0.00 42 1014.7
20260510004517 76 0.0 2.0 0.00 0.00 0.00 40 1014.9
20260510003516 77 23 1.0 3.0 0.00 0.00 0.00 37 1014.9
20260510002516 77 23 1.0 2.0 0.00 0.00 0.00 34 1015.0
20260510001518 76 0.0 2.0 0.00 0.00 0.00 36 1015.2
20260510000516 77 315 1.0 3.0 0.00 0.00 0.00 32 1015.1
20260509235536 76 0.0 1.0 0.00 0.00 0.00 37 1015.2
20260509234516 78 315 1.0 3.0 0.00 0.00 0.00 31 1015.5
20260509233516 78 293 2.0 3.0 0.00 0.00 0.00 30 1015.6
20260509232517 78 90 1.0 3.0 0.00 0.00 0.00 33 1015.9
20260509231516 78 90 1.0 4.0 0.00 0.00 0.00 31 1015.9
20260509230537 78 68 1.0 4.0 0.00 0.00 0.00 34 1016.0
20260509225636 78 293 1.0 4.0 0.00 0.00 0.00 32 1016.1
20260509224516 77 90 2.0 5.0 0.00 0.00 0.00 32 1016.6
20260509223516 78 315 2.0 5.0 0.00 0.00 0.00 31 1016.6
20260509222516 77 0 2.0 4.0 0.00 0.00 0.00 29 1016.8
20260509221516 77 45 2.0 5.0 0.00 0.00 0.00 31 1017.1
20260509220516 77 158 2.0 4.0 0.00 0.00 0.00 29 1017.3
20260509215516 76 113 1.0 3.0 0.00 0.00 0.00 28 1017.3
20260509214516 76 158 1.0 3.0 0.00 0.00 0.00 32 1017.4
20260509213537 76 23 1.0 3.0 0.00 0.00 0.00 40 1017.6
20260509212517 76 68 2.0 6.0 0.00 0.00 0.00 37 1017.6
20260509211516 74 23 2.0 4.0 0.00 0.00 0.00 38 1017.8
20260509210516 74 338 2.0 5.0 0.00 0.00 0.00 38 1018.0
20260509205516 74 315 2.0 4.0 0.00 0.00 0.00 41 1018.1
20260509204516 74 315 2.0 4.0 0.00 0.00 0.00 42 1018.4
20260509203516 72 0 1.0 4.0 0.00 0.00 0.00 42 1018.2
20260509202516 72 270 2.0 4.0 0.00 0.00 0.00 42 1018.3
20260509201516 72 0 2.0 4.0 0.00 0.00 0.00 47 1018.5
20260509200536 71 338 1.0 4.0 0.00 0.00 0.00 47 1018.8
20260509195515 70 0 1.0 3.0 0.00 0.00 0.00 50 1019.1
20260509194515 70 338 1.0 3.0 0.00 0.00 0.00 45 1019.3
20260509193515 70 90 1.0 3.0 0.00 0.00 0.00 47 1019.4
20260509192516 68 45 2.0 4.0 0.00 0.00 0.00 45 1019.5
20260509191515 68 338 2.0 4.0 0.00 0.00 0.00 50 1019.6
20260509190536 68 113 1.0 3.0 0.00 0.00 0.00 56 1019.7
20260509185515 67 338 1.0 3.0 0.00 0.00 0.00 52 1019.8
20260509184515 66 90 1.0 4.0 0.00 0.00 0.00 52 1020.0
20260509183538 66 315 2.0 4.0 0.00 0.00 0.00 58 1020.1
20260509182518 66 45 2.0 5.0 0.00 0.00 0.00 59 1020.2
20260509181517 65 338 1.0 3.0 0.00 0.00 0.00 58 1020.3
20260509180517 64 90 2.0 4.0 0.00 0.00 0.00 57 1020.2
20260509175517 64 135 1.0 2.0 0.00 0.00 0.00 64 1020.2
20260509174517 63 45 1.0 4.0 0.00 0.00 0.00 57 1020.2
20260509173537 63 0 1.0 4.0 0.00 0.00 0.00 62 1020.3
20260509172537 63 0 2.0 4.0 0.00 0.00 0.00 64 1020.3
20260509171517 62 23 1.0 4.0 0.00 0.00 0.00 63 1020.4
20260509170517 61 68 1.0 4.0 0.00 0.00 0.00 64 1020.5
20260509165559 60 68 1.0 3.0 0.00 0.00 0.00 65 1020.7
20260509164517 60 45 1.0 2.0 0.00 0.00 0.00 66 1020.8
20260509163557 59 45 1.0 3.0 0.00 0.00 0.00 68 1020.8
20260509162517 59 90 1.0 3.0 0.00 0.00 0.00 69 1020.9
20260509161517 58 45 2.0 4.0 0.00 0.00 0.00 73 1020.9
20260509160517 58 0 2.0 4.0 0.00 0.00 0.00 71 1021.0
20260509155517 57 45 2.0 5.0 0.00 0.00 0.00 72 1021.0
20260509154517 56 23 1.0 2.0 0.00 0.00 0.00 74 1021.2
20260509153517 56 23 2.0 3.0 0.00 0.00 0.00 75 1021.2
20260509152517 55 0 1.0 3.0 0.00 0.00 0.00 76 1021.1
20260509151516 55 68 1.0 4.0 0.00 0.00 0.00 80 1021.0
20260509150537 54 45 1.0 3.0 0.00 0.00 0.00 77 1021.1
20260509145516 55 23 2.0 3.0 0.00 0.00 0.00 77 1021.1
20260509144516 54 0.0 1.0 0.00 0.00 0.00 74 1021.1
20260509143517 53 248 1.0 2.0 0.00 0.00 0.00 77 1021.2
20260509142516 52 248 1.0 2.0 0.00 0.00 0.00 78 1021.1
20260509141517 51 0.0 0.0 0.00 0.00 0.00 80 1021.2
20260509140516 50 0.0 1.0 0.00 0.00 0.00 85 1021.1
20260509135536 48 0.0 0.0 0.00 0.00 0.00 88 1021.0
20260509134517 47 248 1.0 2.0 0.00 0.00 0.00 88 1021.1
20260509133556 46 0.0 1.0 0.00 0.00 0.00 88 1020.9
20260509132517 46 0.0 2.0 0.00 0.00 0.00 88 1021.0
20260509131516 46 0.0 0.0 0.00 0.00 0.00 88 1020.9
20260509130516 46 0.0 0.0 0.00 0.00 0.00 88 1020.9
20260509125518 46 0.0 2.0 0.00 0.00 0.00 87 1020.7
20260509124516 47 0.0 1.0 0.00 0.00 0.00 86 1020.6
20260509123516 48 0.0 1.0 0.00 0.00 0.00 85 1020.6
20260509122516 48 0.0 1.0 0.00 0.00 0.00 84 1020.5
20260509121516 50 0.0 1.0 0.00 0.00 0.00 82 1020.6
20260509120516 51 0.0 2.0 0.00 0.00 0.00 80 1020.6
20260509115516 52 0.0 2.0 0.00 0.00 0.00 79 1020.6
20260509114517 52 0.0 2.0 0.00 0.00 0.00 79 1020.6
20260509113536 53 248 1.0 4.0 0.00 0.00 0.00 76 1020.4
20260509112516 54 270 1.0 4.0 0.00 0.00 0.00 75 1020.6
20260509111516 55 270 2.0 6.0 0.00 0.00 0.00 74 1020.4
20260509110556 55 248 1.0 4.0 0.00 0.00 0.00 74 1020.4
20260509105556 55 248 1.0 4.0 0.00 0.00 0.00 74 1020.5
20260509104516 54 293 2.0 4.0 0.00 0.00 0.00 75 1020.5
20260509103518 54 293 2.0 5.0 0.00 0.00 0.00 76 1020.4
20260509102516 54 180 1.0 4.0 0.00 0.00 0.00 77 1020.7
20260509101536 53 0.0 2.0 0.00 0.00 0.00 77 1020.6
20260509100537 53 0.0 2.0 0.00 0.00 0.00 77 1020.6
20260509095516 54 0.0 1.0 0.00 0.00 0.00 75 1020.6
20260509094516 55 180 2.0 5.0 0.00 0.00 0.00 74 1020.6
20260509093516 54 225 1.0 2.0 0.00 0.00 0.00 76 1020.7
20260509092515 54 0.0 1.0 0.00 0.00 0.00 76 1020.6
20260509091516 54 225 1.0 4.0 0.00 0.00 0.00 75 1020.7
20260509090516 55 0.0 1.0 0.00 0.00 0.00 73 1020.9
20260509085516 56 225 1.0 2.0 0.00 0.00 0.00 72 1020.9
20260509084515 56 270 3.0 12.0 0.00 0.00 0.00 72 1021.0
20260509083516 57 293 1.0 3.0 0.00 0.00 0.00 70 1020.9
20260509082516 57 270 3.0 9.0 0.00 0.00 0.00 70 1021.1
20260509081515 56 270 3.0 9.0 0.00 0.00 0.00 72 1021.2
20260509080516 55 248 1.0 3.0 0.00 0.00 0.00 73 1021.2
20260509075537 56 248 1.0 2.0 0.00 0.00 0.00 72 1021.2
20260509074515 56 180 1.0 3.0 0.00 0.00 0.00 70 1021.1
20260509073516 57 270 2.0 5.0 0.00 0.00 0.00 69 1021.2
20260509072516 57 270 1.0 5.0 0.00 0.00 0.00 68 1021.3
20260509071516 58 270 3.0 7.0 0.00 0.00 0.00 67 1021.2
20260509070516 58 270 2.0 6.0 0.00 0.00 0.00 67 1021.4
20260509065537 58 270 2.0 6.0 0.00 0.00 0.00 67 1021.4
20260509064517 58 225 1.0 4.0 0.00 0.00 0.00 67 1021.6
20260509063517 58 270 1.0 4.0 0.00 0.00 0.00 66 1021.6
20260509062517 58 270 2.0 7.0 0.00 0.00 0.00 67 1021.5